Tracking 22441 objects as of 1-Mar-2021
HD Live streaming from Space Station
objects crossing your sky now

INTELSAT 502

Track INTELSAT 502 now!
INTELSAT 502 is classified as:


NORAD ID: 12089
Int'l Code: 1980-098A
Perigee: 36,139.1 km
Apogee: 36,232.9 km
Inclination: 13.9 °
Period: 1,456.2 minutes
Semi major axis: 42556 km
RCS: 13.5237 m2 (large)
Launch date: December 6, 1980
Source: International Telecommunications Satellite Organization (ITSO)
Launch site: AIR FORCE EASTERN TEST RANGE (AFETR)
aabbcc
Your satellite tracking list
Your tracking list is empty




NASA's NSSDC Master Catalog

Two Line Element Set (TLE):
1 12089U 80098A   21057.88174228  .00000043  00000-0  00000-0 0  9997
2 12089  13.9312 341.3547 0011024 306.7922 239.9999  0.98888664114570
Source of the keplerian elements: AFSPC